This is the latest recevied weather packets stored in our database for station/object OE6JVE-13. If no packets are shown the sender has not sent any weather packets the latest 10 day(s).
| Time | Temp. | Humidity | Pressure | Rain* | Wind** | Luminosity | Snow |
|---|---|---|---|---|---|---|---|
| 1777792546 | 14.44° C | 64% | 1013 hPa | 0 mm | - | - | - |
| 1777791952 | 14.44° C | 66% | 1012.9 hPa | 0 mm | - | - | - |
| 1777791358 | 13.89° C | 69% | 1012.9 hPa | 0 mm | - | - | - |
| 1777790759 | 12.22° C | 77% | 1013 hPa | 0 mm | - | - | - |
| 1777790162 | 11.67° C | 83% | 1012.9 hPa | 0 mm | - | - | - |
| 1777651264 | 18.89° C | 30% | 1018.5 hPa | 0 mm | - | - | - |
| 1777650671 | 20.56° C | 28% | 1018.5 hPa | 0 mm | - | - | - |
| 1777650077 | 20.56° C | 26% | 1018.6 hPa | 0 mm | - | - | - |
| 1777649415 | 21.11° C | 27% | 1018.5 hPa | 0 mm | - | - | - |
| 1777648821 | 21.11° C | 27% | 1018.7 hPa | 0 mm | - | - | - |
| 1777648228 | 21.67° C | 27% | 1018.6 hPa | 0 mm | - | - | - |
| 1777647634 | 21.11° C | 26% | 1018.7 hPa | 0 mm | - | - | - |
| 1777647040 | 20.56° C | 27% | 1018.8 hPa | 0 mm | - | - | - |
| 1777646447 | 20.56° C | 26% | 1018.9 hPa | 0 mm | - | - | - |
| 1777645853 | 20.56° C | 27% | 1018.9 hPa | 0 mm | - | - | - |
| 1777645259 | 20.56° C | 27% | 1019 hPa | 0 mm | - | - | - |
| 1777644664 | 19.44° C | 30% | 1019.2 hPa | 0 mm | - | - | - |
| 1777644070 | 18.89° C | 28% | 1019.1 hPa | 0 mm | - | - | - |
| 1777643476 | 20° C | 28% | 1019.2 hPa | 0 mm | - | - | - |
| 1777642816 | 21.11° C | 26% | 1019.3 hPa | 0 mm | - | - | - |
| 1777642223 | 20° C | 26% | 1019.4 hPa | 0 mm | - | - | - |
| 1777641628 | 20° C | 27% | 1019.7 hPa | 0 mm | - | - | - |
| 1777641035 | 20° C | 27% | 1019.8 hPa | 0 mm | - | - | - |
| 1777640439 | 20° C | 29% | 1019.7 hPa | 0 mm | - | - | - |
| 1777639845 | 19.44° C | 29% | 1019.9 hPa | 0 mm | - | - | - |
* Rain latest hour (hover to see other rain measurements)
** Current wind speed in m/s (hover to see current wind gust speed)